Time,TemperatureF,DewpointF,PressureIn,WindDirection,WindDirectionDegrees,WindSpeedMPH,WindSpeedGustMPH,Humidity,HourlyPrecipIn,Conditions,Clouds,dailyrainin,SoftwareType,DateUTC
2013-09-27 00:00:00,56.0,-99.9,-100.00,SSE,167,3.0,-999.0,-999,-99.99,,,-99.99,,2013-09-27 07:00:00,
2013-09-27 00:53:00,56.0,-99.9,-100.00,SSE,167,3.0,-999.0,-999,-99.99,,,-99.99,,2013-09-27 07:53:00,
2013-09-27 03:00:00,54.0,-99.9,-100.00,SSE,154,3.0,-999.0,-999,-99.99,,,-99.99,,2013-09-27 10:00:00,
2013-09-27 03:53:00,54.0,-99.9,-100.00,SSE,154,3.0,-999.0,-999,-99.99,,,-99.99,,2013-09-27 10:53:00,
2013-09-27 04:00:00,53.0,-99.9,-100.00,SE,133,2.0,-999.0,-999,-99.99,,,-99.99,,2013-09-27 11:00:00,
2013-09-27 04:52:00,53.0,-99.9,-100.00,SE,133,2.0,-999.0,-999,-99.99,,,-99.99,,2013-09-27 11:52:00,
2013-09-27 08:00:00,54.0,-99.9,-100.00,SSE,147,5.0,-999.0,-999,-99.99,,,-99.99,,2013-09-27 15:00:00,
2013-09-27 08:54:00,54.0,-99.9,-100.00,SSE,147,5.0,-999.0,-999,-99.99,,,-99.99,,2013-09-27 15:54:00,
2013-09-27 09:00:00,53.0,-99.9,-100.00,SSE,151,6.0,-999.0,-999,-99.99,,,-99.99,,2013-09-27 16:00:00,
2013-09-27 09:54:00,53.0,-99.9,-100.00,SSE,151,6.0,-999.0,-999,-99.99,,,-99.99,,2013-09-27 16:54:00,
2013-09-27 12:00:00,57.0,-99.9,-100.00,SSE,155,3.0,-999.0,-999,-99.99,,,-99.99,,2013-09-27 19:00:00,
2013-09-27 12:53:00,57.0,-99.9,-100.00,SSE,155,3.0,-999.0,-999,-99.99,,,-99.99,,2013-09-27 19:53:00,
2013-09-27 14:00:00,57.0,-99.9,-100.00,SSE,168,3.0,-999.0,-999,-99.99,,,-99.99,,2013-09-27 21:00:00,
2013-09-27 14:54:00,57.0,-99.9,-100.00,SSE,168,3.0,-999.0,-999,-99.99,,,-99.99,,2013-09-27 21:54:00,
2013-09-27 17:00:00,58.0,-99.9,-100.00,SSE,149,3.0,-999.0,-999,-99.99,,,-99.99,,2013-09-28 00:00:00,
2013-09-27 17:52:00,58.0,-99.9,-100.00,SSE,149,3.0,-999.0,-999,-99.99,,,-99.99,,2013-09-28 00:52:00,
2013-09-27 20:00:00,58.0,-99.9,-100.00,SE,134,3.0,-999.0,-999,-99.99,,,-99.99,,2013-09-28 03:00:00,
2013-09-27 20:55:00,58.0,-99.9,-100.00,SE,134,3.0,-999.0,-999,-99.99,,,-99.99,,2013-09-28 03:55:00,
2013-09-27 21:00:00,58.0,-99.9,-100.00,SE,142,5.0,-999.0,-999,-99.99,,,-99.99,,2013-09-28 04:00:00,
2013-09-27 21:54:00,58.0,-99.9,-100.00,SE,142,5.0,-999.0,-999,-99.99,,,-99.99,,2013-09-28 04:54:00,
2013-09-27 22:00:00,58.0,-99.9,-100.00,SE,145,5.0,-999.0,-999,-99.99,,,-99.99,,2013-09-28 05:00:00,
2013-09-27 22:53:00,58.0,-99.9,-100.00,SE,145,5.0,-999.0,-999,-99.99,,,-99.99,,2013-09-28 05:53:00,
2013-09-27 23:00:00,57.0,-99.9,-100.00,SE,145,5.0,-999.0,-999,-99.99,,,-99.99,,2013-09-28 06:00:00,
2013-09-27 23:52:00,57.0,-99.9,-100.00,SE,145,5.0,-999.0,-999,-99.99,,,-99.99,,2013-09-28 06:52:00,